Dewpoint
53 53 52 53 54 54 54 55 55 55 55 55 56 56 57 57 57 58 58 58 59 59 59 59 60 60 60 61 61 61 60 53 47 44 48 47 56 64 65 67 67 67 65 47 33 25 23 22 22 22 27 27 32 30 34 38 40 36 27 26 20 18 21 21 20 23 24 19 20 20 20 20 20 23 24 24 27 29 30 30 31 32 32 33 34 36 41 44
53 52 53 53 53 53 53 54 54 55 55 55 55 56 56 56 57 57 58 58 59 59 59 59 59 60 60 60 61 61 56 53 51 43 39 57 64 67 67 67 66 65 57 36 33 28 23 22 23 23 22 20 36 27 36 34 35 30 29 26 20 24 23 23 24 25 19 19 19 20 23 20 20 23 24 22 25 26 26 29 31 31 32 35 37 40 42 43
53 53 52 52 53 53 53 54 54 54 54 55 55 55 56 56 57 57 58 58 58 59 59 59 59 59 60 61 61 60 56 50 41 37 39 64 66 66 66 65 66 62 41 38 38 36 27 25 25 23 25 22 22 26 34 29 32 30 28 19 21 28 24 25 24 23 24 20 22 22 23 21 22 24 25 22 23 25 24 28 29 31 32 34 37 40 41 43
54 54 53 53 53 53 54 54 54 54 55 55 55 55 55 56 56 57 58 58 58 58 59 59 60 60 60 60 60 57 52 39 37 37 51 62 65 66 65 64 63 59 48 45 42 38 30 28 24 23 27 20 23 32 26 29 21 27 25 20 23 25 23 23 26 24 23 23 22 22 23 22 23 23 22 21 22 23 25 27 26 27 31 33 36 39 41 42
53 53 52 52 53 53 53 53 53 54 54 54 55 55 55 56 56 57 57 58 58 58 59 59 59 60 60 60 60 53 39 29 32 42 51 61 65 66 64 65 62 52 41 39 36 30 27 26 25 28 22 17 26 26 22 25 27 26 20 22 21 25 23 24 25 28 24 24 22 21 20 21 24 22 21 21 20 21 23 26 29 29 32 34 36 39 41 41
52 52 53 52 52 53 53 54 54 54 54 55 55 55 55 56 56 57 57 57 58 58 58 59 59 60 60 60 53 53 29 20 29 39 63 62 63 64 65 64 63 49 41 30 29 30 25 24 22 24 21 17 18 21 21 24 27 22 24 22 24 24 22 24 27 25 23 23 21 21 22 23 23 22 23 20 20 21 28 30 30 31 33 35 37 39 41 41
53 51 52 52 52 53 53 54 54 54 54 55 55 55 55 55 56 56 57 57 58 58 58 59 59 60 60 58 53 41 35 34 44 45 57 62 62 64 64 60 55 40 29 28 28 29 30 23 21 25 21 20 19 21 21 23 26 27 21 23 23 25 23 26 25 26 23 22 21 22 24 23 22 21 24 21 29 30 31 31 31 32 34 36 37 39 40 41
53 53 52 51 52 52 52 53 53 54 54 54 55 55 55 55 55 56 56 57 58 58 59 59 59 60 59 49 41 39 40 36 41 54 59 61 59 56 53 47 39 40 31 28 29 28 28 24 21 24 20 18 20 22 24 24 24 26 24 25 25 24 25 27 26 24 24 23 25 25 23 23 22 22 23 24 29 30 30 31 32 33 34 35 36 38 39 41
53 53 53 53 52 53 52 52 53 53 53 53 54 55 55 55 55 56 56 57 57 58 58 59 59 59 59 48 39 24 18 40 52 55 56 55 53 42 43 39 40 34 33 32 32 32 30 27 28 24 18 21 22 21 22 21 20 26 24 26 25 24 25 26 27 25 25 26 25 23 23 24 24 25 22 23 29 30 30 30 31 33 34 35 36 37 39 41
53 53 53 53 53 53 53 53 53 53 53 53 53 54 54 55 55 56 56 57 57 58 58 59 59 58 53 44 29 14 27 50 54 55 54 48 42 41 41 44 41 36 32 33 34 31 30 30 27 31 25 23 26 26 24 22 20 25 25 25 24 24 25 26 25 25 25 27 25 22 24 24 23 24 21 30 30 30 29 30 31 32 32 34 35 36 37 40
53 53 53 53 52 52 53 54 53 53 53 54 53 53 54 54 55 56 56 57 57 58 58 59 59 54 45 40 28 18 45 52 51 48 47 46 44 40 41 43 45 40 37 40 39 42 32 33 38 32 29 22 24 24 24 25 25 25 25 25 25 25 25 25 25 24 25 24 25 24 23 24 22 25 22 27 29 30 29 29 30 31 31 33 34 35 37 38
54 54 54 53 53 52 53 53 54 53 53 53 54 54 54 54 55 55 56 57 57 58 58 59 58 53 45 35 32 29 47 49 49 48 49 46 47 45 45 43 42 43 38 39 42 44 42 38 33 23 20 27 23 25 25 26 25 25 25 23 24 26 24 25 24 24 25 24 24 24 22 22 23 21 23 28 29 29 29 29 29 30 31 33 34 35 36 37
55 55 55 54 54 53 53 53 54 54 53 53 53 53 54 54 55 55 56 57 57 58 59 59 57 53 36 27 30 42 47 49 48 46 45 48 45 45 47 46 43 42 43 41 42 42 45 39 31 26 31 24 24 23 27 27 26 25 25 24 23 26 23 25 25 25 24 24 25 23 20 23 22 21 27 29 29 29 28 28 29 29 30 33 34 35 36 37
56 56 55 55 55 53 53 54 54 54 54 53 53 53 53 54 54 55 56 57 58 59 59 59 53 48 37 32 40 46 50 54 46 44 45 47 40 43 44 45 46 45 48 44 44 44 40 42 33 30 34 25 24 33 26 26 25 23 24 25 23 22 23 26 26 24 23 25 24 23 22 21 22 22 26 29 28 28 27 28 28 29 30 32 34 34 36 37
56 56 56 56 55 55 53 53 55 54 54 54 54 54 54 54 54 56 57 58 58 59 59 58 52 42 31 32 45 51 60 47 43 44 46 43 43 40 40 39 38 40 43 40 38 42 40 39 31 25 24 27 30 25 26 29 29 25 22 22 29 22 25 28 26 23 22 22 23 22 23 21 21 21 27 29 28 27 26 27 28 28 29 31 32 34 35 36
57 56 56 56 56 55 54 56 56 55 55 55 56 54 54 55 55 56 57 58 59 59 53 52 49 39 33 30 40 55 47 42 41 45 45 46 44 40 41 40 42 38 34 33 41 41 36 35 29 27 27 27 27 28 27 26 27 31 22 25 25 24 25 24 23 24 25 21 21 21 21 21 20 22 27 28 27 27 26 26 27 28 29 30 32 33 34 34
57 56 56 56 56 56 56 56 56 56 56 56 56 55 55 56 56 57 58 59 57 56 51 46 45 39 26 32 45 39 41 46 48 46 43 47 48 43 40 39 36 35 38 36 38 36 33 30 32 30 31 25 27 30 24 24 23 25 27 23 29 24 25 24 26 26 27 21 20 21 20 20 21 23 26 27 27 27 26 26 26 27 28 29 31 33 33 34
57 57 56 56 56 56 56 56 56 56 56 56 56 55 55 56 57 57 56 56 53 51 52 53 47 25 22 36 28 34 45 46 45 46 46 44 45 41 39 35 38 37 36 30 31 29 33 30 32 29 30 28 26 26 24 20 23 23 25 24 24 26 26 25 25 24 21 21 20 20 20 20 20 21 25 26 27 26 26 26 26 26 27 29 30 32 33 33
57 57 56 56 56 56 57 56 56 56 56 56 56 56 57 57 56 54 53 51 35 25 22 32 22 13 13 18 37 47 47 47 46 43 41 42 44 43 40 39 37 30 31 28 27 29 32 34 33 28 27 27 25 25 23 24 26 26 28 26 27 26 26 25 26 26 21 20 20 20 19 19 20 20 22 25 26 26 26 26 25 26 26 27 29 31 33 33
57 57 56 56 56 56 56 56 56 55 56 55 53 52 42 43 31 38 46 46 41 22 24 26 29 35 38 40 43 45 48 43 41 43 44 44 40 39 36 36 37 35 30 29 32 32 34 29 27 26 26 26 27 27 25 24 27 29 30 28 27 27 27 27 27 25 23 22 20 20 20 20 20 21 21 23 25 26 26 25 25 25 26 27 28 30 32 33
57 57 57 56 56 56 56 56 56 56 57 53 53 48 22 39 17 12 38 45 45 45 42 41 33 30 33 42 44 44 40 39 43 42 42 46 42 33 32 33 33 31 32 33 31 32 31 28 29 29 27 27 27 27 27 27 27 27 27 26 25 28 25 26 26 25 25 22 23 23 21 21 21 21 22 24 25 25 25 25 25 25 25 26 27 29 31 33
57 57 57 57 56 56 56 56 56 56 57 54 53 49 50 45 39 41 37 28 37 42 44 44 43 39 41 44 44 43 40 37 39 41 43 42 37 31 31 32 30 28 32 33 32 30 29 27 27 29 30 29 29 28 27 26 27 27 26 26 25 26 28 27 27 26 25 25 22 23 23 24 24 24 25 26 25 24 25 25 25 25 25 26 27 28 30 34
57 57 57 57 56 56 56 56 56 57 54 52 50 50 50 51 49 48 43 37 38 43 41 41 38 40 39 41 43 42 36 34 34 40 40 41 37 34 33 31 30 31 33 30 29 28 27 30 30 30 31 30 30 29 27 28 28 27 26 25 25 27 25 24 25 27 25 24 24 26 24 25 25 26 27 27 27 26 26 26 26 26 25 25 26 27 30 33
57 57 57 57 57 56 56 56 56 55 53 52 51 51 51 50 50 50 43 30 29 34 43 42 37 36 35 34 40 40 35 33 37 37 43 38 33 37 32 32 30 31 30 30 29 28 26 29 32 31 32 30 30 30 29 27 27 28 28 27 26 27 27 25 24 27 29 29 28 25 27 27 28 27 28 29 29 28 27 27 26 27 29 27 30 29 30 32
57 57 57 57 56 57 56 57 53 52 53 51 50 52 53 52 51 51 39 22 22 33 42 41 42 41 35 44 43 37 37 36 36 38 43 38 34 32 30 33 31 29 29 30 30 30 29 30 34 31 32 31 31 29 30 30 27 28 29 28 27 28 26 28 30 28 27 27 30 28 25 26 29 29 28 29 30 28 27 27 26 25 26 27 27 28 31 33
57 57 57 57 57 56 57 52 51 53 52 50 48 50 51 52 50 50 32 25 17 25 32 30 42 34 41 38 41 40 34 32 36 43 42 40 43 32 33 31 31 28 30 31 30 31 30 32 33 32 33 32 31 30 31 31 28 26 27 30 28 28 28 27 28 27 23 22 28 30 25 24 26 27 29 30 28 29 29 27 27 27 26 26 27 28 30 32
58 57 57 57 57 57 52 47 53 52 49 49 51 51 50 51 51 50 13 21 13 29 27 35 31 30 41 37 38 30 23 27 42 43 40 42 36 43 29 30 30 31 32 32 29 28 31 31 31 32 32 32 30 29 32 29 28 26 29 31 30 28 27 28 28 28 27 27 31 29 27 25 26 27 29 29 29 29 29 30 29 28 27 26 27 28 30 32
58 57 57 57 57 56 50 52 52 50 49 49 50 51 51 51 50 47 21 9 8 31 31 34 34 41 40 38 35 26 28 36 32 38 41 42 40 36 30 30 28 30 29 31 23 29 30 30 31 32 31 30 29 31 33 31 28 28 31 34 31 30 29 29 27 27 27 27 27 28 29 26 27 28 30 31 29 29 30 30 31 31 29 28 28 29 30 32
57 57 57 57 57 56 53 53 51 50 51 51 50 52 53 51 45 25 18 7 27 34 38 34 43 39 37 36 31 36 34 37 27 37 41 40 40 36 32 31 30 30 29 29 22 29 34 32 32 33 31 30 32 32 33 32 28 29 34 34 32 32 31 29 27 27 26 25 26 27 29 25 26 28 29 29 29 29 29 29 30 30 30 29 29 30 31 32
57 57 57 57 56 55 53 53 52 52 52 53 53 52 50 47 34 24 13 5 33 29 34 37 36 35 35 32 29 35 32 35 37 38 38 36 37 37 34 34 31 30 30 31 29 32 35 35 35 33 32 32 33 33 34 33 30 35 33 32 30 29 27 26 26 25 24 22 27 29 29 28 26 27 28 28 29 28 28 29 29 30 30 29 30 30 31 32
57 57 56 56 54 54 53 50 51 53 53 55 53 50 47 40 22 17 11 14 21 31 35 33 33 36 33 32 29 33 35 36 37 36 35 36 34 34 33 31 34 30 28 29 28 29 31 32 31 32 35 34 33 32 33 35 34 34 29 28 29 28 25 23 21 24 21 23 24 28 29 29 26 26 28 29 29 29 29 28 28 29 29 29 30 31 31 32
57 57 57 56 56 55 51 49 51 54 54 54 52 49 40 30 32 16 14 13 16 23 32 31 34 34 33 33 32 32 32 35 36 36 34 34 34 32 31 28 31 26 26 28 28 28 28 29 32 32 36 33 32 32 32 34 33 32 30 29 25 19 21 18 17 19 21 22 22 25 28 27 28 27 28 29 30 30 29 29 29 29 29 29 30 31 31 33
57 56 56 56 55 54 53 54 53 54 54 53 51 47 38 27 22 24 18 17 17 33 32 34 34 34 34 33 31 33 33 31 35 36 35 34 33 33 34 31 33 27 19 27 28 27 29 28 31 32 31 34 33 29 28 28 31 30 29 28 25 20 19 15 16 14 18 21 23 24 27 27 27 29 30 30 30 31 31 30 30 30 30 29 30 31 31 32
57 56 56 56 56 55 55 54 54 54 54 53 48 43 39 27 24 31 23 19 27 36 36 35 36 34 34 31 32 34 31 33 35 35 35 33 33 32 33 34 34 32 31 28 27 28 22 24 29 32 29 34 32 30 31 30 31 30 29 30 28 24 18 17 16 18 20 21 21 23 22 23 22 26 29 31 31 30 28 29 29 30 30 30 30 31 31 32
57 56 56 56 55 56 55 55 55 54 54 51 45 38 29 26 31 28 25 25 28 37 36 36 35 34 32 31 33 34 33 31 35 34 33 33 32 31 32 32 34 33 33 25 28 28 27 25 30 34 33 35 33 34 34 32 30 29 29 30 26 27 27 22 20 18 17 17 17 19 25 26 26 29 29 28 28 27 28 27 28 28 29 30 30 31 31 31
56 56 57 54 54 55 55 55 55 55 52 47 40 33 29 30 27 34 30 28 28 35 35 35 33 31 31 31 32 33 34 32 33 33 31 32 31 32 33 32 32 32 29 24 29 26 27 27 31 33 34 33 33 33 33 33 27 29 30 27 29 30 28 23 22 20 20 17 24 19 24 26 27 27 27 28 27 27 26 26 27 28 28 29 29 30 31 31
54 55 52 53 54 55 55 55 55 53 51 45 38 32 35 35 36 35 38 28 25 36 35 30 33 31 31 31 32 33 33 34 32 32 31 32 31 33 31 33 35 33 31 29 31 33 26 27 33 30 30 32 31 33 33 34 32 30 27 29 31 32 30 26 21 17 15 20 20 22 23 24 22 23 26 26 27 26 26 26 26 27 28 28 29 30 31 31
53 52 53 52 53 55 55 55 54 52 49 43 34 37 38 36 39 36 33 32 29 36 33 28 30 34 32 31 32 33 33 30 32 31 30 32 30 34 33 32 34 33 32 33 27 32 32 25 30 32 31 31 32 33 33 32 33 31 30 32 29 25 23 26 22 19 17 18 20 21 23 24 25 24 24 24 26 26 26 26 26 26 27 28 29 29 30 30
53 51 46 51 54 55 54 55 53 50 45 38 35 34 38 36 40 36 32 29 31 32 30 29 27 33 33 31 32 34 34 30 32 31 29 31 29 32 32 33 33 34 33 32 30 33 32 27 29 31 31 31 31 32 30 29 31 32 32 30 30 28 23 24 27 21 22 17 14 21 22 21 27 26 26 25 26 27 26 26 26 26 26 27 28 29 29 30
49 47 45 53 55 55 54 54 50 47 43 35 35 35 39 37 38 37 36 32 32 28 28 28 29 31 34 33 34 33 34 32 32 32 30 31 30 34 33 34 33 34 33 33 32 37 32 30 26 29 30 31 29 30 30 31 30 29 30 29 29 26 28 29 25 25 22 14 15 19 21 21 26 28 27 26 26 26 26 27 27 27 27 27 28 29 29 30
50 45 44 53 55 55 54 50 45 41 41 42 39 37 38 37 38 39 39 38 37 42 31 29 29 27 33 33 34 35 34 33 33 32 31 31 31 27 34 34 35 34 34 34 33 35 30 29 28 30 29 29 30 31 33 32 31 30 30 29 30 29 26 22 24 25 22 22 22 16 21 23 28 28 27 27 27 27 27 27 27 27 27 28 29 29 29 30
46 39 43 53 55 54 50 42 42 44 42 39 37 39 37 41 40 39 38 39 39 37 42 38 34 31 32 34 34 35 34 33 33 32 31 30 32 31 32 35 35 35 33 32 32 35 32 33 31 29 30 31 31 32 34 33 32 32 31 30 32 30 29 24 23 23 23 27 21 18 17 24 28 30 29 28 28 27 27 28 27 28 28 28 29 29 29 30
44 42 51 54 55 52 47 41 42 41 39 41 43 42 41 39 39 40 38 37 37 38 38 36 37 31 32 34 36 35 35 33 34 32 33 33 32 33 34 36 37 36 35 33 35 36 36 32 30 30 30 30 32 32 31 31 32 30 30 29 30 30 30 28 27 28 28 24 23 20 21 24 28 29 28 28 28 28 28 27 27 27 28 29 28 29 29 29
45 44 47 53 54 52 44 36 36 37 38 40 41 40 42 40 38 39 38 38 36 35 35 36 38 35 32 35 37 35 36 31 35 34 33 34 32 36 36 37 36 35 33 33 32 36 31 32 32 30 28 28 29 31 30 30 30 27 28 31 32 31 31 31 31 29 25 27 27 26 23 25 28 29 28 27 26 26 26 27 28 27 28 29 28 29 29 29
44 44 45 49 52 50 41 43 39 37 36 36 38 38 39 40 41 39 39 38 38 36 36 35 35 39 36 38 37 37 38 32 30 36 35 33 34 37 36 38 36 35 35 37 37 37 32 33 32 29 27 26 26 27 28 29 30 31 30 31 32 31 31 29 28 29 27 28 28 26 25 27 27 28 27 27 26 25 26 27 29 28 28 28 29 30 29 29
41 34 42 44 48 46 46 46 44 40 37 37 36 37 38 38 40 41 41 40 39 38 37 36 38 39 37 38 37 37 37 37 33 32 35 33 32 35 37 38 38 37 37 38 38 36 32 33 32 31 30 28 29 30 30 32 30 29 30 31 32 32 32 32 30 29 27 28 27 28 28 27 28 28 27 27 26 25 25 26 27 28 29 29 29 30 30 29
42 38 38 35 44 44 43 45 43 42 38 39 35 36 36 37 38 40 42 39 41 40 39 39 38 36 37 38 37 37 37 36 38 34 34 34 32 34 38 37 38 37 39 37 38 35 32 32 33 32 31 31 31 31 32 32 31 31 30 30 32 32 32 31 30 29 30 28 27 29 29 29 29 29 30 29 27 27 27 26 26 27 29 29 29 29 32 29
36 38 39 43 38 34 38 40 43 42 41 40 37 38 36 36 37 37 41 41 41 42 39 39 40 40 37 37 38 34 36 35 35 34 34 34 34 36 35 37 37 37 39 38 39 35 32 31 33 33 32 33 32 33 33 32 32 31 31 31 31 32 32 31 31 31 30 29 27 29 30 30 29 30 31 31 30 28 27 26 26 27 28 28 28 29 29 29
41 41 40 42 38 36 40 41 42 41 40 40 37 37 36 36 36 38 39 39 40 40 41 36 38 39 39 38 38 36 36 34 34 36 34 34 34 34 35 34 36 36 37 36 38 34 33 32 32 33 33 33 33 34 33 32 31 31 31 31 31 31 31 31 31 31 31 30 31 30 30 30 30 30 31 32 32 31 31 29 29 28 28 29 28 28 29 29
38 38 36 40 38 37 37 38 40 40 38 40 35 36 36 36 36 38 39 39 37 38 42 38 38 39 40 39 38 36 37 37 35 34 36 36 34 35 35 36 34 32 32 31 35 35 36 32 35 33 33 33 34 34 33 32 32 31 32 31 31 31 31 31 31 31 32 31 31 31 31 31 31 32 32 33 33 32 29 28 27 28 28 29 29 28 29 29
42 41 42 37 35 38 37 37 38 38 37 39 36 36 37 37 36 38 38 41 39 38 40 39 39 39 40 40 39 38 39 38 38 37 36 38 35 37 37 34 37 31 31 33 34 33 35 33 32 32 32 32 34 33 33 32 32 32 32 32 31 30 29 30 31 32 31 31 31 31 31 31 31 32 32 32 30 30 30 30 29 28 28 29 29 28 29 29
44 42 42 40 33 38 37 35 37 35 34 37 37 36 36 36 38 39 37 40 41 41 41 40 40 41 40 39 39 40 41 40 39 41 41 41 40 40 41 39 40 36 32 31 33 33 34 33 33 33 32 32 33 32 31 31 32 31 32 32 32 32 31 31 32 32 32 32 31 30 30 31 32 32 32 31 31 31 31 30 30 29 28 29 29 29 29 29